Regional Weather Roundup
Issued by NWS

Home | Current Version | Previous Version | Graphics & Text | Print | Product List | Glossary Off
Versions: 1 2 3 4 5 6 7 8 9 10 11 12 13 14 15 16 17 18 19 20 21 22 23 24 25 26 27 28 29 30 31 32 33 34 35 36 37 38 39 40 41 42 43 44 45 46 47 48 49 50

000
ASUS43 KMPX 111010
RWRMN
WEATHER ROUNDUP FOR MINNESOTA
NATIONAL WEATHER SERVICE TWIN CITIES/CHANHASSEN MN
400 AM CST MON DEC 11 2017


NOTE: "FAIR" INDICATES FEW OR NO CLOUDS BELOW 12,000 FEET WITH NO
SIGNIFICANT WEATHER AND/OR OBSTRUCTIONS TO VISIBILITY. N/A MEANS
CURRENT SKY AND/OR WEATHER CONDITIONS ARE NOT AVAILABLE.

MNZ060>063-068>070-111100-
   Twin Cities Metro

CITY           SKY/WX    TMP DP  RH WIND       PRES   REMARKS
TWIN CITIES    CLOUDY    27  25  92 SE6       29.80F WCI  20
ST PAUL        CLOUDY    26  25  96 S10       29.82F FOG     WCI  16
CRYSTAL        CLOUDY    27  22  81 S9        29.77F WCI  18
BLAINE         CLOUDY    28  28 100 S8        29.78  WCI  20
LAKEVILLE      CLOUDY    27  27 100 S5        29.79F WCI  21
EDEN PRAIRIE   CLOUDY    28  25  88 SE6       29.78F WCI  22
SOUTH ST PAUL  CLOUDY    27  26  96 SE3       29.80F
LAKE ELMO      CLOUDY    28  27  93 S8        29.81F WCI  20
$$
MNZ001>005-007-008-013>017-022>024-027-028-111100-
   Northwest Minnesota

CITY           SKY/WX    TMP DP  RH WIND       PRES   REMARKS
BEMIDJI        CLOUDY    26  24  93 SW6       29.65S WCI  19
HALLOCK        LGT SNOW  34  32  93 N15       29.70R WCI  24
ROSEAU         LGT SNOW  25  19  80 CALM      29.67S
WARROAD        LGT SNOW  21  19  93 CALM      29.67S
THIEF RVR FALL CLOUDY    30  28  93 W10       29.68R WCI  21
CROOKSTON      CLOUDY    32  30  93 W7        29.70R WCI  26
FOSSTON        CLOUDY    28  27  93 S6        29.67S WCI  22
DETROIT LAKES  LGT SNOW  32  32 100 SW3       29.69S
MOORHEAD       PTCLDY    32  28  86 CALM      29.71R
PARK RAPIDS    LGT SNOW  27  25  92 S3        29.66F FOG
MAHNOMEN       CLOUDY    32  31  98 SW8       29.67S WCI  25
$$
MNZ006-009>011-018-025>026-111100-
   North Central Minnesota

CITY           SKY/WX    TMP DP  RH WIND       PRES   REMARKS
BAUDETTE       LGT SNOW  21  19  92 SE5       29.65F FOG     WCI  15
FLAG ISLAND    LGT SNOW  19  18  93 CALM      29.69R
INTL FALLS     LGT SNOW  19  15  84 SE6       29.68F VSB 1   WCI  11
WASKISH        CLOUDY    25  21  86 CALM      29.66F
GRAND RAPIDS   FLURRIES  21  20  96 S8        29.71F WCI  11
ORR            LGT SNOW  18  12  79 SE6       29.68F WCI   9
COOK           LGT SNOW  18  16  93 SE6       29.71F WCI   9
WALKER         CLOUDY    25  24  94 S5        29.67F WCI  19
$$
MNZ012-019>021-037-111100-
   Northeast Minnesota

CITY           SKY/WX    TMP DP  RH WIND       PRES   REMARKS
DULUTH         FLURRIES  18  16  92 S6        29.74F WCI  10
ELY            LGT SNOW  18  14  86 S6        29.72F WCI   9
HIBBING        LGT SNOW  18  16  92 SE6       29.71F FOG     WCI  10
EVELETH        LGT SNOW  18  14  86 SE5       29.73F WCI  11
DULUTH HARBOR  FLURRIES  19  18  93 CALM      29.81F
TWO HARBORS    LGT SNOW  19  16  86 CALM      29.76F
G MARAIS ARPRT LGT SNOW  12   7  79 CALM      29.73F
$$
MNZ029>031-032-039>041-046>048-054>057-064-111100-
   West Central Minnesota

CITY           SKY/WX    TMP DP  RH WIND       PRES   REMARKS
FERGUS FALLS   CLOUDY    32  30  93 CALM      29.73F
MORRIS         CLOUDY    30  28  93 W3        29.71F
ALEXANDRIA     CLOUDY    31  28  89 SW7       29.70F WCI  24
ELBOW LAKE     CLOUDY    32  30  94 SW5       29.72F FOG     WCI  27
WADENA         MIX PCPN  28  28 100 SW3       29.67F
GLENWOOD       MIX PCPN  30  28  93 S5        29.70F WCI  25
BENSON         CLOUDY    32  27  80 SW5       29.72F WCI  27
ORTONVILLE     CLOUDY    36  27  69 W6        29.74S
MADISON        PTCLDY    36  28  75 SW5       29.73F
WILLMAR        FAIR      25  23  93 SE5       29.74F WCI  19
$$
MNZ033>034-036-042>043-049>051-058-059-111100-
   Central Minnesota

CITY           SKY/WX    TMP DP  RH WIND       PRES   REMARKS
ST CLOUD       CLOUDY    27  26  96 SE6       29.75F WCI  20
SAUK CENTRE    FLURRIES  28  26  89 S6        29.72F WCI  22
PAYNESVILLE    CLOUDY    28  27  94 S5        29.74F WCI  23
AITKIN         CLOUDY    23  21  93 S7        29.70F WCI  15
PINE RIVER     CLOUDY    23  21  93 SE6       29.73F WCI  16
BRAINERD       CLOUDY    27  24  89 S8        29.71F WCI  19
STAPLES        MIX PCPN  27  27 100 S8        29.68F WCI  18
LONG PRAIRIE   FLURRIES  28  27  93 S6        29.72F WCI  22
LITTLE FALLS   CLOUDY    27  23  86 S5        29.73F WCI  21
LITCHFIELD     CLOUDY    28  28 100 CALM      29.75F
BUFFALO        CLOUDY    28  25  89 SE3       29.77F
MAPLE LAKE     CLOUDY    30  28  90 S5        29.76F WCI  25
HUTCHINSON     CLOUDY    27  26  94 SE3       29.77F
$$
MNZ037-044-045-052-053-111100-
   East Central Minnesota

CITY           SKY/WX    TMP DP  RH WIND       PRES   REMARKS
PRINCETON      CLOUDY    28  27  93 SE5       29.76F WCI  23
MORA           CLOUDY    27  25  93 S5        29.78F WCI  21
CAMBRIDGE      CLOUDY    28  25  86 S6        29.78F WCI  22
RUSH CITY      LGT SNOW  25  23  93 S7        29.79F WCI  17
MOOSE LAKE     LGT SNOW  23  21  93 S3        29.74F
HINCKLEY       LGT SNOW  25  23  93 SE3       29.77F
CLOQUET        CLOUDY    19  16  86 CALM      29.74F FOG
MCGREGOR       CLOUDY    25  23  93 S7        29.72F WCI  17
$$
MNZ071>073-080-081-089-090-097-098-111100-
   Southwest Minnesota

CITY           SKY/WX    TMP DP  RH WIND       PRES   REMARKS
MONTEVIDEO     CLOUDY    36  28  75 W6        29.73F
GRANITE FALLS  CLOUDY    34  28  78 S9        29.76F WCI  27
CANBY          MOCLDY    40  28  60 W5        29.75F
MARSHALL       PTCLDY    38  26  62 NW8       29.76F
REDWOOD FALLS  CLOUDY    33  26  75 SW8       29.76F WCI  26
OLIVIA         PTCLDY    30  28  93 S6        29.74F WCI  24
PIPESTONE      PTCLDY    27  23  86 SW8       29.78F WCI  18
WINDOM           N/A     34  19  55 SW6       29.77F WCI  29
WORTHINGTON    CLOUDY    36  26  67 W15       29.79F
JACKSON        CLOUDY    34  27  75 MISG      29.78F
TRACY          PTCLDY    38  29  68 W9        29.75F
$$
MNZ065>067-074>077-082>085-091>093-111100-
   South Central Minnesota

CITY           SKY/WX    TMP DP  RH WIND       PRES   REMARKS
MANKATO        CLOUDY    31  27  85 S6        29.80F WCI  25
NEW ULM        CLOUDY    32  27  80 S6        29.77F WCI  26
ST JAMES       CLOUDY    34  28  80 S5        29.79F WCI  30
FAIRMONT       MOCLDY    32  27  81 S6        29.80F WCI  26
GLENCOE        CLOUDY    29  28  92 S5        29.77F WCI  24
FARIBAULT      CLOUDY    30  27  86 S7        29.80F WCI  23
WASECA         CLOUDY    32  28  86 S8        29.81F WCI  25
ALBERT LEA     CLOUDY    30  25  80 S7        29.80F WCI  23
$$
MNZ078>079-086>088-094>096-111100-
   Southeast Minnesota

CITY           SKY/WX    TMP DP  RH WIND       PRES   REMARKS
ROCHESTER      CLOUDY    26  23  88 S13       29.83F WCI  15
RED WING       CLOUDY    27  23  86 SE5       29.84F WCI  21
STANTON        CLOUDY    30  26  83 S8        29.80F WCI  22
DODGE CENTER   CLOUDY    27  25  93 S10       29.81F WCI  17
WINONA         CLOUDY    28  27  93 SE5       29.90F WCI  23
AUSTIN         CLOUDY    28  23  80 S10       29.82F WCI  19
PRESTON        CLOUDY    26  22  85 S12       29.86F WCI  16
$$
ABBREVIATIONS USED IN REMARKS
   TC - TEMPERATURES IN CELSIUS
  WCI - WIND CHILL INDEX
   HX - HEAT INDEX
  VSB - VISIBILITY
$$




USA.gov is the U.S. government's official web portal to all federal, state and local government web resources and services.